STARLINK-35312

Last updated on Mon Oct 20 2025 00:02:07 GMT+0000 (Coordinated Universal Time)

1 65866U 25223N 25292.25002315 -.01907279 00000+0 -21797-1 0 9996 2 65866 53.1599 234.9661 0001213 87.6149 26.8977 15.64689892 3738
UTC large
Height (km)
Speed (km/s)
/
Latitude / Longitude
Inclination (degrees)
Orbital Period (minutes)
Azimuth
Elevation
Range (km)
Doppler Factor

Next 0 passes for location: London (51.5072 / 0.1276)

Sorry there are no passes over London.